Regional Weather Roundup
Issued by NWS State College, PA

Home | Current Version | Previous Version | Graphics & Text | Print | Product List | Glossary Off
Versions: 1 2 3 4 5 6 7 8 9 10 11 12 13 14 15 16 17 18 19 20 21 22 23 24 25 26 27 28 29 30 31 32 33 34 35 36 37 38 39 40 41 42 43 44 45 46 47 48 49 50

000
ASUS41 KCTP 050610
RWRCTP

REGIONAL WEATHER ROUNDUP
NATIONAL WEATHER SERVICE STATE COLLEGE PA
100 AM EST MON DEC 05 2016

Note: "fair" indicates few or no clouds below 12,000 feet with no
significant weather and/or obstructions to visibility.

* = STATION THAT DOES NOT REPORT PRECIPITATION /E.G. RAIN...SNOW...ETC/
    THUNDER OR FOG.

PAZ002>004-007>009-013>016-020>023-029>032-050700-
WESTERN PENNSYLVANIA

CITY           SKY/WX    TMP DP  RH WIND       PRES   REMARKS
ERIE           MIX PCPN  37  33  85 S12G22    29.78F
MEADVILLE      CLOUDY    33  31  92 VRB6      29.79F
FRANKLIN*        N/A     34  28  80 S10G16    29.82S
NEW CASTLE     MIX PCPN  35  35 100 VRB3      29.83F
BEAVER COUNTY  NOT AVBL
BUTLER*        CLOUDY    36  32  87 SE5       29.84F
PITTSBURGH INT LGT RAIN  38  37  97 S3        29.83S FOG
PITTSBURGH     CLOUDY    38  36  92 S9        29.83S FOG
INDIANA*       CLOUDY    36  36 100 S7G14     29.87R FOG
LATROBE        RAIN      39  39 100 SW6       29.85S
WASHINGTON CO* CLOUDY    39  37  93 SW7       29.84S
$$

PAZ004>006-010>012-017>019-024>028-033>037-041-042-045-046-049>053-050700-
CENTRAL PENNSYLVANIA

CITY           SKY/WX    TMP DP  RH WIND       PRES   REMARKS
BRADFORD       LGT SNOW  31  30  96 SE10G21   29.80F FOG
DUBOIS         LGT SNOW  33  30  88 SE8G17    29.82R VSB 1
CLEARFIELD     LGT SNOW  33  33 100 CALM      29.86F FOG
JOHNSTOWN      FRZ RAIN  33  32  96 S9        29.82F
ALTOONA        LGT RAIN  35  32  88 S6        29.90F
STATE COLLEGE  LGT SNOW  33  32  96 S3        29.91F
WILLIAMSPORT   LGT RAIN  37  31  78 E12       29.96S
SELINSGROVE    RAIN      37  35  92 S10       30.00S FOG
FT INDIANTOWN  LGT RAIN  37  37 100 S7        30.02S
CAPITAL CITY   RAIN      39  33  79 S6        30.02S
HARRISBURG     LGT RAIN  39  35  86 S8        30.02S
YORK           LGT RAIN  36  34  92 MISG      30.02F
$$

PAZ038>040-043-044-047-048-054-055-060>062-067>071-050700-
EASTERN PENNSYLVANIA

CITY           SKY/WX    TMP DP  RH WIND       PRES   REMARKS
SCRANTON       CLOUDY    39  23  52 S3        29.98F
MOUNT POCONO   CLOUDY    29  21  72 SE7       29.96F
ALLENTOWN      CLOUDY    42  25  50 SE8       30.04F
QUAKERTOWN*    CLOUDY    39  28  65 S6        30.04F
READING        LGT RAIN  40  31  70 S10       30.02F
LANCASTER      LGT RAIN  39  35  86 S8        30.02F
COATESVILLE    CLOUDY    39  32  75 S8        30.03F
POTTSTOWN      LGT RAIN  39  33  79 S8G16     30.06F
BLUE BELL      CLOUDY    37  32  81 S8        30.06F
DOYLESTOWN     CLOUDY    41  28  60 SE7       30.05F
WILLOW GROVE   NOT AVBL
NORTH PHILA    LGT RAIN  43  30  60 S7        30.10F
PHILADELPHIA   LGT RAIN  42  34  73 S10       30.09F
$$



USA.gov is the U.S. government's official web portal to all federal, state and local government web resources and services.